Weather History for Brno, Czech Republic

Change the Weather History Date:

Sunday, October 13, 2013

  Actual Average Record
Temperature  
Mean Temperature 53 °F -  
Max Temperature 60 °F 51 °F - ()
Min Temperature 44 °F 38 °F - ()
Degree Days  
Heating Degree Days 12    
Growing Degree Days 3 (Base 50)    
Moisture  
Dew Point 49 °F    
Average Humidity 91    
Maximum Humidity 100    
Minimum Humidity 67    
Precipitation  
Precipitation 0.00 in 0.04 in - ()
Sea Level Pressure  
Sea Level Pressure 30.12 in    
Wind  
Wind Speed 5 mph ()    
Max Wind Speed 8 mph    
Max Gust Speed -    
Visibility 4.8 miles    
Events Fog    
T = Trace of Precipitation, MM = Missing Value Source: Averaged Metar Reports

Daily Weather History Graph

Daily Weather History Graph

Search for Another Location

Airport:

Trip Planner

Search our weather history database for the weather conditions in past years. The results will help you decide how hot, cold, wet, or windy it might be!

Date:

Astronomy

Oct. 13, 2013 Rise Set
Actual Time 7:10 AM CEST 6:07 PM CEST
Civil Twilight 6:38 AM CEST 6:39 PM CEST
Nautical Twilight 6:02 AM CEST 7:15 PM CEST
Astronomical Twilight 5:25 AM CEST 7:52 PM CEST
Moon 3:13 PM CEST (10/13) 12:31 AM CEST (10/13)
Length of Visible Light 12h 00m
Length of Day
10h 56m
Waxing Gibbous, 66% of the Moon is Illuminated
Oct 13
Waxing Gibbous
Oct 19
Full
Oct 27
Last Quarter
Nov 3
New
Nov 10
First Quarter

Hourly Weather History & Observations

Time (CEST) Temp. Windchill Dew Point Humidity Pressure Visibility Wind Dir Wind Speed Gust Speed Precip Events Conditions
12:00 AM 55.4 °F - 53.6 °F 94% 30.06 in 6.2 mi ESE 8.1 mph - N/A   Scattered Clouds
12:30 AM 55.4 °F - 53.6 °F 94% 30.04 in 6.2 mi ESE 6.9 mph - N/A   Mostly Cloudy
1:00 AM 55.4 °F - 53.6 °F 94% 30.06 in 6.2 mi ESE 6.9 mph - N/A   Mostly Cloudy
1:30 AM 57.2 °F - 53.6 °F 88% 30.04 in 6.2 mi East 6.9 mph - N/A   Mostly Cloudy
2:00 AM 55 °F - 52 °F 87% 30.07 in 19 mi ESE 6.7 mph - -   Partly Cloudy
2:00 AM 55.4 °F - 51.8 °F 88% 30.06 in 6.2 mi East 6.9 mph - N/A   Scattered Clouds
2:30 AM 55.4 °F - 51.8 °F 88% 30.06 in 6.2 mi ESE 4.6 mph - N/A   Scattered Clouds
3:00 AM 53.6 °F - 51.8 °F 94% 30.06 in - SE 5.8 mph - N/A   Clear
3:30 AM 51.8 °F - 51.8 °F 100% 30.04 in - ESE 5.8 mph - N/A   Clear
4:00 AM 51.8 °F - 50.0 °F 94% 30.04 in 6.2 mi ESE 5.8 mph - N/A   Partly Cloudy
4:30 AM 51.8 °F - 50.0 °F 94% 30.06 in 6.2 mi SE 2.3 mph - N/A   Partly Cloudy
5:00 AM 50.0 °F - 48.2 °F 94% 30.04 in - ESE 5.8 mph - N/A   Clear
5:30 AM 50.0 °F - 48.2 °F 94% 30.04 in - ESE 6.9 mph - N/A   Clear
6:00 AM 50.0 °F - 48.2 °F 94% 30.04 in - SSE 8.1 mph - N/A   Clear
6:30 AM 50.0 °F - 46.4 °F 87% 30.06 in - SE 8.1 mph - N/A   Clear
7:00 AM 50.0 °F - 48.2 °F 94% 30.06 in 6.2 mi ESE 5.8 mph - N/A   Partly Cloudy
7:30 AM 48.2 °F - 46.4 °F 93% 30.06 in 5.6 mi Variable 1.2 mph - N/A Fog Fog
8:00 AM 49 °F - 47 °F 92% 30.09 in 5 mi West 2.2 mph - - Fog Shallow Fog
8:00 AM 48.2 °F - 48.2 °F 100% 30.06 in 5.0 mi West 1.2 mph - N/A Fog Fog
8:10 AM 50.0 °F - 48.2 °F 94% 30.09 in 5.0 mi Calm Calm - N/A   Mostly Cloudy
8:30 AM 50.0 °F - 48.2 °F 94% 30.09 in 5.0 mi Variable 1.2 mph - N/A   Mostly Cloudy
9:00 AM 50.0 °F - 48.2 °F 94% 30.09 in 4.3 mi SSW 6.9 mph - N/A   Overcast
9:30 AM 50.0 °F - 48.2 °F 94% 30.12 in 3.7 mi SW 6.9 mph - N/A   Light Drizzle
9:32 AM 50.0 °F - 48.2 °F 94% 30.12 in 2.2 mi SW 8.1 mph - N/A   Light Drizzle
9:48 AM 48.2 °F - 48.2 °F 100% 30.12 in 1.6 mi SSW 8.1 mph - N/A   Light Drizzle
10:00 AM 48.2 °F - 48.2 °F 100% 30.12 in 0.9 mi South 5.8 mph - N/A   Light Drizzle
10:12 AM 48.2 °F - 48.2 °F 100% 30.12 in 1.6 mi SSW 6.9 mph - N/A   Light Drizzle
10:30 AM 48.2 °F - 48.2 °F 100% 30.12 in 1.4 mi SSW 5.8 mph - N/A   Light Drizzle
11:00 AM 48.2 °F - 48.2 °F 100% 30.15 in 1.1 mi South 5.8 mph - N/A   Overcast
11:04 AM 48.2 °F - 48.2 °F 100% 30.15 in 1.0 mi South 5.8 mph - N/A   Overcast
11:09 AM 48.2 °F - 48.2 °F 100% 30.15 in 0.7 mi SSW 5.8 mph - N/A   Overcast
11:24 AM 48.2 °F - 48.2 °F 100% 30.15 in 1.0 mi SSW 4.6 mph - N/A   Overcast
11:30 AM 48.2 °F - 48.2 °F 100% 30.15 in 1.1 mi SSW 4.6 mph - N/A   Overcast
12:00 PM 50.0 °F - 48.2 °F 94% 30.15 in 1.7 mi Variable 2.3 mph - N/A   Mostly Cloudy
12:06 PM 50.0 °F - 48.2 °F 94% 30.15 in - Variable 2.3 mph - N/A   Overcast
12:20 PM 50.0 °F - 48.2 °F 94% 30.15 in 3.1 mi SSW 5.8 mph - N/A   Overcast
12:30 PM 50.0 °F - 48.2 °F 94% 30.15 in 3.1 mi SSW 5.8 mph - N/A   Overcast
1:00 PM 51.8 °F - 50.0 °F 94% 30.15 in 3.7 mi Variable 1.2 mph - N/A   Overcast
1:02 PM 51.8 °F - 50.0 °F 94% 30.15 in 3.7 mi Variable 2.3 mph - N/A   Overcast
1:30 PM 51.8 °F - 50.0 °F 94% 30.15 in 5.0 mi Variable 2.3 mph - N/A   Overcast
2:00 PM 54 °F - 50 °F 80% 30.16 in 5 mi ESE 2.2 mph - -   Mist
2:00 PM 53.6 °F - 50.0 °F 88% 30.15 in 5.0 mi Variable 2.3 mph - N/A   Mostly Cloudy
2:30 PM 57.2 °F - 50.0 °F 77% 30.15 in 5.6 mi Variable 4.6 mph - N/A   Scattered Clouds
3:00 PM 59.0 °F - 50.0 °F 72% 30.15 in 5.6 mi NE 4.6 mph - N/A   Partly Cloudy
3:30 PM 59.0 °F - 50.0 °F 72% 30.12 in 6.2 mi East 5.8 mph - N/A   Partly Cloudy
4:00 PM 59.0 °F - 48.2 °F 67% 30.12 in 6.2 mi SE 3.5 mph - N/A   Partly Cloudy
4:30 PM 57.2 °F - 48.2 °F 72% 30.15 in 6.2 mi SSE 3.5 mph - N/A   Partly Cloudy
5:00 PM 59.0 °F - 50.0 °F 72% 30.15 in 6.2 mi South 4.6 mph - N/A   Scattered Clouds
5:30 PM 57.2 °F - 48.2 °F 72% 30.15 in 6.2 mi South 4.6 mph - N/A   Partly Cloudy
6:00 PM 55.4 °F - 48.2 °F 77% 30.15 in 6.2 mi SE 5.8 mph - N/A   Partly Cloudy
6:30 PM 53.6 °F - 48.2 °F 82% 30.18 in 6.2 mi ESE 5.8 mph - N/A   Partly Cloudy
7:00 PM 51.8 °F - 48.2 °F 88% 30.18 in 6.2 mi SSE 4.6 mph - N/A   Partly Cloudy
7:30 PM 51.8 °F - 48.2 °F 88% 30.18 in 6.2 mi Variable 2.3 mph - N/A   Partly Cloudy
8:00 PM 51 °F - 48 °F 85% 30.20 in 7 mi NNE 6.7 mph - -   Scattered Clouds
8:00 PM 51.8 °F - 48.2 °F 88% 30.18 in - NNE 6.9 mph - N/A   Clear
8:30 PM 50.0 °F - 48.2 °F 94% 30.18 in - NNE 5.8 mph - N/A   Clear
9:00 PM 50.0 °F - 46.4 °F 87% 30.18 in 5.6 mi North 6.9 mph - N/A   Unknown
9:30 PM 46.4 °F 45.2 °F 44.6 °F 93% 30.21 in 5.0 mi NNE 3.5 mph - N/A   Unknown
10:00 PM 46.4 °F 45.2 °F 44.6 °F 93% 30.21 in 3.7 mi NNE 3.5 mph - N/A   Unknown
10:30 PM 46.4 °F - 46.4 °F 100% 30.18 in 3.1 mi West 2.3 mph - N/A   Mist
10:46 PM 46.4 °F 45.2 °F 44.6 °F 93% 30.18 in 4.3 mi North 3.5 mph - N/A   Unknown
11:00 PM 46.4 °F - 44.6 °F 93% 30.18 in 5.0 mi North 2.3 mph - N/A   Unknown
11:30 PM 44.6 °F 42.2 °F 42.8 °F 93% 30.18 in 5.0 mi NE 4.6 mph - N/A   Unknown